Location: Lecco
(45.8566°N, 9.3977°E)
Time: 18:56:51
(UTC+02:00)

OTV 5 (USA 277) - Pass Details

Date: 19 June 2019
Orbit: 305 x 329 km, 54.5° (Epoch: 11 August)

Event Time Altitude Azimuth Distance (km) Brightness Sun altitude
Rises 02:32:52 0° 291° (WNW) 2,094 ? -19.0°
Reaches altitude 10° 02:35:28 10° 318° (NW) 1,261 ? -18.8°
Drops below altitude 10° 02:38:48 10° 31° (NNE) 1,262 ? -18.7°
Enters shadow 03:41:30 -57° 275° (W) 11,080 ? -14.0°
Maximum altitude 04:12:15 18° 15° (NNE) 890 ? -10.9°
